"Pseudo-MPEC" for P11CrpC

Created 2022 Dec 22 19:22:17 UT using Find_Orb

Click here for an explanation of pseudo-MPECs

 
 Astrometry: 
     P11CrpC* C2022 12 02HO6uV/`iPs!7oeo1^Pi,lAstrometry+TRE\mOLBV(+pq[CMbZB'F51
     P11CrpC  C2022 12 02PSe*].7O9EGredacted;EjG[7w.Y-6eWbFib5ei?sTIVc:`V_-V)F51
     P11CrpC  C2022 12 02/7t,yTmjsJclick,?$u\9`KXYhereZ\jwvP-67csFUn,Tyxu#*n\F51
     P11CrpC  C2022 12 02%PO@VbSforjDCgtstde8^1m,!.q]O^Qe\:^8explanationV7([IF51

Station data:
(F51) Pan-STARRS 1, Haleakala  (N20.707234 W156.255910)  US/Hawaii.
   Observers J. Bulger, T. Lowe, A. Schultz, M. Willman. Measurers K.
   Chambers, S. Chastel, T. de Boer, L. Denneau, J. Fairlamb, H. Flewelling,
   M. Huber, C.-C. Lin, E. Magnier, Y. Ramanjooloo, R. Wainscoat, R. Weryk.
   1.8-m Ritchey-Chrétien + CCD.

Orbital elements:  P11CrpC
   Perihelion 2022 Apr 7.16548 +/- 173 TT =  3:58:17 (JD 2459676.66548)
Epoch 2022 Dec  3.0 TT = JDT 2459916.5   Earth MOID: 0.8162      AutoNEOCP
M  59.53181680 +/- 90               (J2000 ecliptic)
n   0.24822038 +/- 0.419            Peri.   78.54937 +/- 80
a   2.50752006 +/- 2.82             Node   290.00565 +/- 13
e   0.3604196 +/- 0.258             Incl.   30.71291 +/- 44
P   3.97                   H 17.87  G  0.15   U 12.2  SR
q 1.60376044 +/- 1.1    Q 3.41127968 +/- 39.6
From 4 observations 2022 Dec. 2 (63.0 min); mean residual 0".02
Residuals in arcseconds: 
221202 F51  .03+  .01-    221202 F51  .01-  .02+    
221202 F51  .04-  .01+    221202 F51  .02+  .01-    

Ephemerides (geocentric):
Date (UTC) HH   RA             Dec           delta  r     elong  mag " sig PA
---- --------  ------------   ------------  ------ ------ -----  --- --------
2022 12 22 19  08 40 38.587   +14 18 45.93  1.5796 2.4290 141.6 21.7  59d 167
2022 12 22 20  08 40 35.848   +14 18 23.78  1.5795 2.4292 141.7 21.7  59d 167
2022 12 22 21  08 40 33.106   +14 18 01.63  1.5793 2.4293 141.7 21.7  59d 167
2022 12 22 22  08 40 30.361   +14 17 39.48  1.5791 2.4295 141.8 21.7  59d 167
2022 12 22 23  08 40 27.613   +14 17 17.34  1.5789 2.4297 141.8 21.7  60d 167
2022 12 23 00  08 40 24.861   +14 16 55.21  1.5787 2.4298 141.9 21.7  60d 167
2022 12 23 01  08 40 22.107   +14 16 33.09  1.5785 2.4300 141.9 21.7  60d 167
2022 12 23 02  08 40 19.349   +14 16 10.97  1.5783 2.4302 142.0 21.7  60d 167
2022 12 23 03  08 40 16.588   +14 15 48.86  1.5782 2.4303 142.0 21.7  60d 167
2022 12 23 04  08 40 13.824   +14 15 26.76  1.5780 2.4305 142.1 21.7  60d 167
2022 12 23 05  08 40 11.057   +14 15 04.66  1.5778 2.4307 142.1 21.7  60d 167
2022 12 23 06  08 40 08.287   +14 14 42.57  1.5776 2.4308 142.2 21.7  60d 167
2022 12 23 07  08 40 05.514   +14 14 20.48  1.5774 2.4310 142.2 21.7  60d 167
2022 12 23 08  08 40 02.738   +14 13 58.41  1.5773 2.4312 142.3 21.7  60d 167
2022 12 23 09  08 39 59.959   +14 13 36.34  1.5771 2.4313 142.3 21.7  60d 167
2022 12 23 10  08 39 57.177   +14 13 14.27  1.5769 2.4315 142.4 21.7  60d 167
2022 12 23 11  08 39 54.391   +14 12 52.21  1.5767 2.4317 142.4 21.6  60d 167
2022 12 23 12  08 39 51.603   +14 12 30.16  1.5765 2.4318 142.5 21.6  60d 167
2022 12 23 13  08 39 48.812   +14 12 08.12  1.5764 2.4320 142.5 21.6  60d 167
2022 12 23 14  08 39 46.017   +14 11 46.08  1.5762 2.4322 142.6 21.6  60d 167
2022 12 23 15  08 39 43.220   +14 11 24.05  1.5760 2.4323 142.7 21.6  60d 167
2022 12 23 16  08 39 40.419   +14 11 02.02  1.5758 2.4325 142.7 21.6  60d 167
2022 12 23 17  08 39 37.616   +14 10 40.01  1.5757 2.4327 142.8 21.6  60d 167
2022 12 23 18  08 39 34.809   +14 10 18.00  1.5755 2.4328 142.8 21.6  61d 167
2022 12 23 19  08 39 31.999   +14 09 55.99  1.5753 2.4330 142.9 21.6  61d 167
2022 12 23 20  08 39 29.187   +14 09 33.99  1.5751 2.4332 142.9 21.6  61d 167
2022 12 23 21  08 39 26.371   +14 09 12.00  1.5749 2.4333 143.0 21.6  61d 167
2022 12 23 22  08 39 23.553   +14 08 50.02  1.5748 2.4335 143.0 21.6  61d 167
2022 12 23 23  08 39 20.731   +14 08 28.04  1.5746 2.4337 143.1 21.6  61d 167
2022 12 24 00  08 39 17.906   +14 08 06.07  1.5744 2.4338 143.1 21.6  61d 167
2022 12 24 01  08 39 15.079   +14 07 44.11  1.5743 2.4340 143.2 21.6  61d 167
2022 12 24 02  08 39 12.248   +14 07 22.15  1.5741 2.4342 143.2 21.6  61d 167
2022 12 24 03  08 39 09.414   +14 07 00.20  1.5739 2.4344 143.3 21.6  61d 167
2022 12 24 04  08 39 06.578   +14 06 38.26  1.5737 2.4345 143.3 21.6  61d 167
2022 12 24 05  08 39 03.738   +14 06 16.32  1.5736 2.4347 143.4 21.6  61d 167
2022 12 24 06  08 39 00.895   +14 05 54.39  1.5734 2.4349 143.4 21.6  61d 167
2022 12 24 07  08 38 58.050   +14 05 32.47  1.5732 2.4350 143.5 21.6  61d 167
2022 12 24 08  08 38 55.201   +14 05 10.55  1.5730 2.4352 143.5 21.6  61d 167
2022 12 24 09  08 38 52.350   +14 04 48.64  1.5729 2.4354 143.6 21.6  61d 167
2022 12 24 10  08 38 49.495   +14 04 26.74  1.5727 2.4355 143.6 21.6  61d 167
2022 12 24 11  08 38 46.638   +14 04 04.84  1.5725 2.4357 143.7 21.6  61d 167
2022 12 24 12  08 38 43.777   +14 03 42.95  1.5724 2.4359 143.7 21.6  61d 167
2022 12 24 13  08 38 40.914   +14 03 21.07  1.5722 2.4360 143.8 21.6  61d 167
2022 12 24 14  08 38 38.048   +14 02 59.20  1.5720 2.4362 143.8 21.6  61d 167
2022 12 24 15  08 38 35.179   +14 02 37.33  1.5719 2.4364 143.9 21.6  61d 167
2022 12 24 16  08 38 32.306   +14 02 15.47  1.5717 2.4365 143.9 21.6  61d 167
2022 12 24 17  08 38 29.431   +14 01 53.61  1.5715 2.4367 144.0 21.6  61d 167
2022 12 24 18  08 38 26.553   +14 01 31.76  1.5714 2.4369 144.0 21.6  61d 167